When you browse on this site, cookies collect data to enhance your experience and personalize the content and advertising you see.
Visit our Privacy Policy to learn more. By continuing to use the site, you agree to this use of cookies and data.
  • In Österreich
  • Länderverzeichnis
  • Für 7 Tage
  • Wassertemperatur
  • Wetterkarte
  • News
  • Widgets
  • user-avatar
    Anmelden

    Stündliche Wetter Tulancingo

    Heute, 26 Januar, Sonntag

    Zeit Temperatur Niederschläge Wind Luftdruck Luftfeuchtigkeit
    00:00 +12°C° 0 mm 2 m/S 586 mmHg 84%
    01:00 +12°C° 0 mm 2 m/S 586 mmHg 85%
    02:00 +11°C° 0 mm 1 m/S 585 mmHg 86%
    03:00 +11°C° 0 mm 1 m/S 585 mmHg 87%
    04:00 +11°C° 0 mm 1 m/S 585 mmHg 87%
    05:00 +10°C° 0 mm 1 m/S 585 mmHg 88%
    06:00 +12°C° 0 mm 1 m/S 586 mmHg 82%
    07:00 +13°C° 0 mm 1 m/S 587 mmHg 75%
    08:00 +15°C° 0 mm 1 m/S 588 mmHg 69%
    09:00 +17°C° 0 mm 2 m/S 589 mmHg 60%
    10:00 +18°C° 0 mm 2 m/S 589 mmHg 52%
    11:00 +20°C° 0 mm 2 m/S 590 mmHg 43%
    12:00 +20°C° 0.3 mm 3 m/S 589 mmHg 46%
    13:00 +19°C° 0.3 mm 3 m/S 588 mmHg 50%
    14:00 +19°C° 0.3 mm 3 m/S 587 mmHg 53%
    15:00 +18°C° 0.5 mm 2 m/S 587 mmHg 62%
    16:00 +16°C° 0.5 mm 2 m/S 586 mmHg 71%
    17:00 +15°C° 0.5 mm 1 m/S 585 mmHg 80%
    18:00 +14°C° 0.1 mm 1 m/S 586 mmHg 83%
    19:00 +13°C° 0.1 mm 1 m/S 586 mmHg 86%
    20:00 +12°C° 0.1 mm 1 m/S 586 mmHg 89%
    21:00 +12°C° 0 mm 1 m/S 586 mmHg 89%
    22:00 +11°C° 0 mm 1 m/S 585 mmHg 90%
    23:00 +11°C° 0 mm 1 m/S 585 mmHg 90%

    Morgen, 27 Januar, Montag

    Zeit Temperatur Niederschläge Wind Luftdruck Luftfeuchtigkeit
    00:00 +11°C° 0 mm 1 m/S 585 mmHg 90%
    01:00 +10°C° 0 mm 1 m/S 585 mmHg 90%
    02:00 +10°C° 0 mm 1 m/S 584 mmHg 91%
    03:00 +10°C° 0 mm 1 m/S 584 mmHg 90%
    04:00 +10°C° 0 mm 1 m/S 584 mmHg 90%
    05:00 +9°C° 0 mm 0 m/S 585 mmHg 89%
    06:00 +11°C° 0 mm 1 m/S 586 mmHg 83%
    07:00 +13°C° 0 mm 1 m/S 587 mmHg 77%
    08:00 +14°C° 0 mm 1 m/S 588 mmHg 70%
    09:00 +16°C° 0 mm 1 m/S 588 mmHg 62%
    10:00 +18°C° 0 mm 2 m/S 589 mmHg 53%
    11:00 +19°C° 0 mm 3 m/S 589 mmHg 44%
    12:00 +19°C° 0 mm 3 m/S 588 mmHg 42%
    13:00 +20°C° 0 mm 3 m/S 588 mmHg 39%
    14:00 +20°C° 0 mm 3 m/S 587 mmHg 37%
    15:00 +19°C° 0.1 mm 3 m/S 586 mmHg 47%
    16:00 +17°C° 0.1 mm 2 m/S 586 mmHg 57%
    17:00 +16°C° 0.1 mm 1 m/S 585 mmHg 66%
    18:00 +15°C° 0 mm 1 m/S 585 mmHg 71%
    19:00 +14°C° 0 mm 1 m/S 585 mmHg 75%
    20:00 +13°C° 0 mm 1 m/S 585 mmHg 79%
    21:00 +12°C° 0 mm 1 m/S 585 mmHg 75%
    22:00 +12°C° 0 mm 1 m/S 585 mmHg 70%
    23:00 +12°C° 0 mm 1 m/S 584 mmHg 65%

    übermorgen, 28 Januar, Dienstag

    Zeit Temperatur Niederschläge Wind Luftdruck Luftfeuchtigkeit
    00:00 +10°C° 0 mm 2 m/S 584 mmHg 65%
    01:00 +10°C° 0 mm 2 m/S 584 mmHg 65%
    02:00 +10°C° 0 mm 2 m/S 583 mmHg 65%
    03:00 +9°C° 0 mm 2 m/S 583 mmHg 66%
    04:00 +9°C° 0 mm 2 m/S 583 mmHg 68%
    05:00 +9°C° 0 mm 2 m/S 583 mmHg 69%
    06:00 +10°C° 0 mm 2 m/S 584 mmHg 63%
    07:00 +13°C° 0 mm 2 m/S 585 mmHg 58%
    08:00 +14°C° 0 mm 2 m/S 586 mmHg 52%
    09:00 +16°C° 0 mm 2 m/S 587 mmHg 43%
    10:00 +19°C° 0 mm 2 m/S 588 mmHg 33%
    11:00 +21°C° 0 mm 2 m/S 588 mmHg 23%
    12:00 +21°C° 0 mm 2 m/S 588 mmHg 23%
    13:00 +21°C° 0 mm 2 m/S 587 mmHg 23%
    14:00 +21°C° 0 mm 2 m/S 586 mmHg 23%
    15:00 +19°C° 0 mm 2 m/S 586 mmHg 37%
    16:00 +17°C° 0 mm 2 m/S 585 mmHg 51%
    17:00 +15°C° 0 mm 2 m/S 584 mmHg 64%
    18:00 +14°C° 0 mm 2 m/S 585 mmHg 72%
    19:00 +13°C° 0 mm 1 m/S 585 mmHg 79%
    20:00 +11°C° 0 mm 1 m/S 585 mmHg 87%
    21:00 +11°C° 0 mm 1 m/S 585 mmHg 84%
    22:00 +10°C° 0 mm 1 m/S 585 mmHg 82%
    23:00 +10°C° 0 mm 1 m/S 584 mmHg 80%

    29 Januar, Mittwoch

    Zeit Temperatur Niederschläge Wind Luftdruck Luftfeuchtigkeit
    00:00 +9°C° 0 mm 1 m/S 584 mmHg 82%
    01:00 +9°C° 0 mm 1 m/S 584 mmHg 84%
    02:00 +9°C° 0 mm 1 m/S 584 mmHg 87%
    03:00 +9°C° 0.1 mm 1 m/S 584 mmHg 88%
    04:00 +9°C° 0.1 mm 1 m/S 584 mmHg 90%
    05:00 +9°C° 0.1 mm 1 m/S 585 mmHg 92%
    06:00 +10°C° 0.1 mm 1 m/S 585 mmHg 90%
    07:00 +9°C° 0.1 mm 2 m/S 586 mmHg 88%
    08:00 +9°C° 0.1 mm 2 m/S 587 mmHg 87%
    09:00 +12°C° 0 mm 2 m/S 587 mmHg 77%
    10:00 +13°C° 0 mm 2 m/S 587 mmHg 68%
    11:00 +15°C° 0 mm 2 m/S 588 mmHg 59%
    12:00 +16°C° 0 mm 3 m/S 587 mmHg 56%
    13:00 +16°C° 0 mm 3 m/S 587 mmHg 54%
    14:00 +17°C° 0 mm 4 m/S 586 mmHg 51%
    15:00 +16°C° 0 mm 3 m/S 586 mmHg 57%
    16:00 +14°C° 0 mm 2 m/S 585 mmHg 63%
    17:00 +13°C° 0 mm 1 m/S 584 mmHg 69%
    18:00 +12°C° 0 mm 1 m/S 584 mmHg 71%
    19:00 +11°C° 0 mm 1 m/S 584 mmHg 74%
    20:00 +10°C° 0 mm 1 m/S 585 mmHg 77%
    21:00 +10°C° 0 mm 1 m/S 584 mmHg 75%
    22:00 +10°C° 0 mm 1 m/S 584 mmHg 73%
    23:00 +9°C° 0 mm 2 m/S 584 mmHg 71%

    30 Januar, Donnerstag

    Zeit Temperatur Niederschläge Wind Luftdruck Luftfeuchtigkeit
    00:00 +9°C° 0 mm 2 m/S 584 mmHg 71%
    01:00 +9°C° 0 mm 2 m/S 583 mmHg 72%
    02:00 +9°C° 0 mm 2 m/S 583 mmHg 72%
    03:00 +8°C° 0 mm 2 m/S 583 mmHg 75%
    04:00 +8°C° 0 mm 2 m/S 583 mmHg 79%
    05:00 +8°C° 0 mm 2 m/S 582 mmHg 82%
    06:00 +9°C° 0 mm 3 m/S 583 mmHg 76%
    07:00 +11°C° 0 mm 3 m/S 585 mmHg 69%
    08:00 +12°C° 0 mm 3 m/S 586 mmHg 62%
    09:00 +14°C° 0 mm 4 m/S 586 mmHg 52%
    10:00 +17°C° 0 mm 5 m/S 587 mmHg 42%
    11:00 +20°C° 0 mm 6 m/S 588 mmHg 32%
    12:00 +21°C° 0 mm 6 m/S 587 mmHg 29%
    13:00 +21°C° 0 mm 6 m/S 587 mmHg 27%
    14:00 +22°C° 0 mm 6 m/S 586 mmHg 25%
    15:00 +20°C° 0 mm 5 m/S 585 mmHg 29%
    16:00 +19°C° 0 mm 4 m/S 585 mmHg 33%
    17:00 +17°C° 0 mm 4 m/S 584 mmHg 38%
    18:00 +15°C° 0 mm 4 m/S 584 mmHg 39%
    19:00 +14°C° 0 mm 3 m/S 584 mmHg 40%
    20:00 +13°C° 0 mm 3 m/S 584 mmHg 41%
    21:00 +12°C° 0 mm 3 m/S 584 mmHg 42%
    22:00 +13°C° 0 mm 2 m/S 584 mmHg 43%
    23:00 +12°C° 0 mm 2 m/S 584 mmHg 44%

    31 Januar, Freitag

    Zeit Temperatur Niederschläge Wind Luftdruck Luftfeuchtigkeit
    00:00 +12°C° 0 mm 2 m/S 584 mmHg 45%
    01:00 +10°C° 0 mm 2 m/S 584 mmHg 46%
    02:00 +9°C° 0 mm 2 m/S 583 mmHg 48%
    03:00 +9°C° 0 mm 2 m/S 583 mmHg 50%
    04:00 +9°C° 0 mm 2 m/S 584 mmHg 53%
    05:00 +8°C° 0 mm 2 m/S 584 mmHg 56%
    06:00 +11°C° 0 mm 1 m/S 585 mmHg 53%
    07:00 +12°C° 0 mm 1 m/S 586 mmHg 51%
    08:00 +12°C° 0 mm 0 m/S 587 mmHg 48%
    09:00 +14°C° 0 mm 1 m/S 588 mmHg 49%
    10:00 +15°C° 0 mm 2 m/S 588 mmHg 51%
    11:00 +16°C° 0 mm 2 m/S 589 mmHg 52%
    12:00 +15°C° 0.1 mm 2 m/S 588 mmHg 59%
    13:00 +14°C° 0.1 mm 2 m/S 587 mmHg 66%
    14:00 +13°C° 0.1 mm 2 m/S 586 mmHg 74%
    15:00 +12°C° 0.3 mm 2 m/S 586 mmHg 80%
    16:00 +9°C° 0.3 mm 2 m/S 586 mmHg 86%
    17:00 +8°C° 0.3 mm 2 m/S 586 mmHg 91%
    18:00 +8°C° 0.5 mm 2 m/S 586 mmHg 92%
    19:00 +8°C° 0.5 mm 2 m/S 587 mmHg 93%
    20:00 +7°C° 0.5 mm 2 m/S 587 mmHg 94%
    21:00 +7°C° 0.7 mm 2 m/S 587 mmHg 94%
    22:00 +7°C° 0.7 mm 2 m/S 587 mmHg 95%
    23:00 +8°C° 0.7 mm 1 m/S 587 mmHg 95%
    Mehr zeigen